Skip Page Navigation
NASA JPL Caltech
NASA Logo - Jet Propulsion Laboratory + View the NASA Portal
+ Near-Earth Object (NEO) Program
Search JPL
JPL Home Earth Solar System Stars & Galaxies Technology
JPL Solar System Dynamics
BODIES ORBITS EPHEMERIDES TOOLS PHYSICAL DATA DISCOVERY FAQ SITE MAP
JPL Small-Body Database Browser
Search: [ help ]  
138979 Cernice (2001 CM32)
Classification: Main-belt Asteroid          SPK-ID: 2138979
Ephemeris | Orbit Diagram | Orbital Elements | Physical Parameters | Discovery Circumstances ]

[ show orbit diagram ]
Orbital Elements at Epoch 2456400.5 (2013-Apr-18.0) TDB
Reference: MPO241085 (heliocentric ecliptic J2000)
 Element Value Uncertainty (1-sigma)   Units 
e 0.0818973 n/a  
a 2.1819691 n/a AU
q 2.0032717 n/a AU
i 6.49898 n/a deg
node 307.10163 n/a deg
peri 119.74037 n/a deg
M 341.85057 n/a deg
tp 2456459.8515138
(2013-Jun-16.35151380)
n/a JED
period 1177.2570806
3.22
n/a
n/a
d
yr
n 0.30579557 n/a deg/d
Q 2.3606665 n/a AU
  Orbit Determination Parameters
   # obs. used (total)      159  
   first obs. used      1999-??-??  
   last obs. used      2012-09-15  
   # oppositions      7  
   planetary ephem.      DE403  
   condition code      1  
   fit RMS      0.55  
   data source      MPC:mpu  
   producer      MPCLINUX  

Additional Information
 T_jup = 3.667 

Ephemeris | Orbit Diagram | Orbital Elements | Physical Parameters | Discovery Circumstances ]

Physical Parameter Table
Parameter Symbol Value Units Sigma Reference Notes
absolute magnitude H 16.5 mag n/a MPO241085  

138979 Cernice           Discovered 2001 Feb. 14 by M. Tichy at Klet.
Cernice is a small pleasant old South Bohemian village situated above the Vltava river. The village belonged to the Zlatá Koruna monastery from 1315 to 1787. Its stony church of the Holy Mary Magdalena was established after 1250 and rebuilt in Gothic style before 1515.
NOTE: some special characters may not display properly (any characters within {} are an attempt to place the proper accent above a character)
Reference: 20120703/MPCPages.arcLast Updated: 2012-07-09
Ephemeris | Orbit Diagram | Orbital Elements | Physical Parameters | Discovery Circumstances ]
ABOUT SSD CREDITS/AWARDS PRIVACY/COPYRIGHT GLOSSARY LINKS
FirstGov 2013-May-19 09:10 UT
(server date/time)  
NASA Home Page
Site Manager:   Donald K. Yeomans
Webmaster  Alan B. Chamberlin